Location: ???????
(55.4362°N, 38.1183°E)
Time: 03:36:59
(UTC+00:00)

Cosmos 2278 Rocket - Pass Details

Date: 17 June 2021
Orbit: 840 x 846 km, 71.0° (Epoch: 26 July)

Event Time Altitude Azimuth Distance (km) Brightness Sun altitude
Rises 20:08:24 0° 325° (NW) 3,413 7.1 -9.3°
Reaches altitude 10° 20:10:51 10° 324° (NW) 2,476 6.0 -9.4°
Maximum altitude 20:16:31 73° 241° (WSW) 885 2.3 -9.7°
Enters shadow 20:21:41 12° 158° (SSE) 2,290 3.8 -9.9°
